Time,TemperatureF,DewpointF,PressureIn,WindDirection,WindDirectionDegrees,WindSpeedMPH,WindSpeedGustMPH,Humidity,HourlyPrecipIn,Conditions,Clouds,dailyrainin,SoftwareType,DateUTC
2013-07-02 00:01:00,45.0,41.0,-100.00,West,275,1.0,2.0,84,0.00,,,-99.99,,2013-07-02 05:01:00,
2013-07-02 00:11:00,45.0,41.0,-100.00,West,275,1.0,2.0,84,0.00,,,-99.99,,2013-07-02 05:11:00,
2013-07-02 00:32:00,43.0,39.0,-100.00,WNW,290,0.0,2.0,87,0.00,,,-99.99,,2013-07-02 05:32:00,
2013-07-02 00:43:00,43.0,39.0,-100.00,WNW,290,0.0,2.0,87,0.00,,,-99.99,,2013-07-02 05:43:00,
2013-07-02 00:53:00,43.0,39.0,-100.00,WNW,290,0.0,2.0,87,0.00,,,-99.99,,2013-07-02 05:53:00,
2013-07-02 01:01:00,43.0,39.0,-100.00,WNW,290,0.0,2.0,87,0.00,,,-99.99,,2013-07-02 06:01:00,
2013-07-02 01:12:00,43.0,39.0,-100.00,WNW,290,0.0,2.0,87,0.00,,,-99.99,,2013-07-02 06:12:00,
2013-07-02 01:34:00,42.0,39.0,-100.00,WNW,295,0.0,1.0,87,0.00,,,-99.99,,2013-07-02 06:34:00,
2013-07-02 01:43:00,42.0,39.0,-100.00,WNW,295,0.0,1.0,87,0.00,,,-99.99,,2013-07-02 06:43:00,
2013-07-02 01:53:00,42.0,39.0,-100.00,WNW,295,0.0,1.0,87,0.00,,,-99.99,,2013-07-02 06:53:00,
2013-07-02 02:01:00,42.0,39.0,-100.00,WNW,295,0.0,1.0,87,0.00,,,-99.99,,2013-07-02 07:01:00,
2013-07-02 02:12:00,42.0,39.0,-100.00,WNW,295,0.0,1.0,87,0.00,,,-99.99,,2013-07-02 07:12:00,
2013-07-02 02:34:00,41.0,37.0,-100.00,WNW,290,1.0,1.0,88,0.00,,,-99.99,,2013-07-02 07:34:00,
2013-07-02 02:44:00,41.0,37.0,-100.00,WNW,290,1.0,1.0,88,0.00,,,-99.99,,2013-07-02 07:44:00,
2013-07-02 02:53:00,41.0,37.0,-100.00,WNW,290,1.0,1.0,88,0.00,,,-99.99,,2013-07-02 07:53:00,
2013-07-02 03:02:00,41.0,37.0,-100.00,WNW,290,1.0,1.0,88,0.00,,,-99.99,,2013-07-02 08:02:00,
2013-07-02 03:12:00,41.0,37.0,-100.00,WNW,290,1.0,1.0,88,0.00,,,-99.99,,2013-07-02 08:12:00,
2013-07-02 03:33:00,39.0,36.0,-100.00,WNW,290,1.0,2.0,88,0.00,,,-99.99,,2013-07-02 08:33:00,
2013-07-02 03:44:00,39.0,36.0,-100.00,WNW,290,1.0,2.0,88,0.00,,,-99.99,,2013-07-02 08:44:00,
2013-07-02 03:53:00,39.0,36.0,-100.00,WNW,290,1.0,2.0,88,0.00,,,-99.99,,2013-07-02 08:53:00,
2013-07-02 04:02:00,39.0,36.0,-100.00,WNW,290,1.0,2.0,88,0.00,,,-99.99,,2013-07-02 09:02:00,
2013-07-02 04:11:00,39.0,36.0,-100.00,WNW,290,1.0,2.0,88,0.00,,,-99.99,,2013-07-02 09:11:00,
2013-07-02 04:33:00,37.0,34.0,-100.00,WNW,285,1.0,2.0,88,0.00,,,-99.99,,2013-07-02 09:33:00,
2013-07-02 04:43:00,37.0,34.0,-100.00,WNW,285,1.0,2.0,88,0.00,,,-99.99,,2013-07-02 09:43:00,
2013-07-02 04:52:00,37.0,34.0,-100.00,WNW,285,1.0,2.0,88,0.00,,,-99.99,,2013-07-02 09:52:00,
2013-07-02 05:01:00,37.0,34.0,-100.00,WNW,285,1.0,2.0,88,0.00,,,-99.99,,2013-07-02 10:01:00,
2013-07-02 05:11:00,37.0,34.0,-100.00,WNW,285,1.0,2.0,88,0.00,,,-99.99,,2013-07-02 10:11:00,
2013-07-02 05:33:00,37.0,33.0,-100.00,WNW,295,1.0,2.0,88,0.00,,,-99.99,,2013-07-02 10:33:00,
2013-07-02 05:44:00,37.0,33.0,-100.00,WNW,295,1.0,2.0,88,0.00,,,-99.99,,2013-07-02 10:44:00,
2013-07-02 05:52:00,37.0,33.0,-100.00,WNW,295,1.0,2.0,88,0.00,,,-99.99,,2013-07-02 10:52:00,
2013-07-02 06:01:00,37.0,33.0,-100.00,WNW,295,1.0,2.0,88,0.00,,,-99.99,,2013-07-02 11:01:00,
2013-07-02 06:11:00,37.0,33.0,-100.00,WNW,295,1.0,2.0,88,0.00,,,-99.99,,2013-07-02 11:11:00,
2013-07-02 06:33:00,38.0,34.0,-100.00,North,350,0.0,1.0,88,0.00,,,-99.99,,2013-07-02 11:33:00,
2013-07-02 06:42:00,38.0,34.0,-100.00,North,350,0.0,1.0,88,0.00,,,-99.99,,2013-07-02 11:42:00,
2013-07-02 06:52:00,38.0,34.0,-100.00,North,350,0.0,1.0,88,0.00,,,-99.99,,2013-07-02 11:52:00,
2013-07-02 07:01:00,38.0,34.0,-100.00,North,350,0.0,1.0,88,0.00,,,-99.99,,2013-07-02 12:01:00,
2013-07-02 07:11:00,38.0,34.0,-100.00,North,350,0.0,1.0,88,0.00,,,-99.99,,2013-07-02 12:11:00,
2013-07-02 07:33:00,46.0,43.0,-100.00,West,280,0.0,0.0,87,0.00,,,-99.99,,2013-07-02 12:33:00,
2013-07-02 07:43:00,46.0,43.0,-100.00,West,280,0.0,0.0,87,0.00,,,-99.99,,2013-07-02 12:43:00,
2013-07-02 07:52:00,46.0,43.0,-100.00,West,280,0.0,0.0,87,0.00,,,-99.99,,2013-07-02 12:52:00,
2013-07-02 08:01:00,46.0,43.0,-100.00,West,280,0.0,0.0,87,0.00,,,-99.99,,2013-07-02 13:01:00,
2013-07-02 08:11:00,46.0,43.0,-100.00,West,280,0.0,0.0,87,0.00,,,-99.99,,2013-07-02 13:11:00,
2013-07-02 08:34:00,56.0,40.0,-100.00,ESE,115,1.0,2.0,56,0.00,,,-99.99,,2013-07-02 13:34:00,
2013-07-02 21:12:00,52.0,38.0,-100.00,ENE,65,0.0,1.0,58,0.00,,,-99.99,,2013-07-03 02:12:00,
2013-07-02 21:40:00,52.0,38.0,-100.00,ENE,65,0.0,1.0,58,0.00,,,-99.99,,2013-07-03 02:40:00,
2013-07-02 21:46:00,52.0,38.0,-100.00,ENE,65,0.0,1.0,58,0.00,,,-99.99,,2013-07-03 02:46:00,
2013-07-02 21:59:00,52.0,38.0,-100.00,ENE,65,0.0,1.0,58,0.00,,,-99.99,,2013-07-03 02:59:00,
2013-07-02 22:04:00,52.0,38.0,-100.00,ENE,65,0.0,1.0,58,0.00,,,-99.99,,2013-07-03 03:04:00,
2013-07-02 22:49:00,48.0,39.0,-100.00,NW,325,0.0,2.0,71,0.00,,,-99.99,,2013-07-03 03:49:00,
2013-07-02 22:58:00,48.0,39.0,-100.00,NW,325,0.0,2.0,71,0.00,,,-99.99,,2013-07-03 03:58:00,
2013-07-02 23:01:00,48.0,39.0,-100.00,NW,325,0.0,2.0,71,0.00,,,-99.99,,2013-07-03 04:01:00,
2013-07-02 23:11:00,48.0,39.0,-100.00,NW,325,0.0,2.0,71,0.00,,,-99.99,,2013-07-03 04:11:00,
2013-07-02 23:43:00,44.0,38.0,-100.00,NNW,340,0.0,1.0,78,0.00,,,-99.99,,2013-07-03 04:43:00,
2013-07-02 23:52:00,44.0,38.0,-100.00,NNW,340,0.0,1.0,78,0.00,,,-99.99,,2013-07-03 04:52:00,